Location: Newark
(42.9260°N, 89.3850°W)
Time: 08:13:14
(UTC+00:00)

STARLINK 1068 - Pass Details

Date: 11 December 2019
Orbit: 479 x 481 km, 53.0° (Epoch: 25 January)

Event Time Altitude Azimuth Distance (km) Brightness Sun altitude
Exits shadow 11:20:44 27° 195° (SSW) 901 4.6 -20.7°
Drops below altitude 10° 11:23:00 10° 162° (SSE) 1,575 6.3 -20.3°
Sets 11:25:16 0° 151° (SSE) 2,447 7.6 -19.9°
